ONEWEB-0297 (49086 NORAD) Tracking and Keplerian Element Data

This shows tracking and keplerian element data for the satellite.

Feedback or suggestion? Click here.




ElementValue
Catalog49086
NameONEWEB-0297
Epoch Orbit364
Epoch Day261.91667824
Epoch Year2021
RAAN356.5281
Inclination87.4549
Eccentricity0.0017888
Argument of Perigee190.9861
Mean Anonmoly213.4994
Mean Motion15.18353147
Decay Rate-0.00972633
L11 49086U 21075M 21261.91667824 -.00972633 00000-0 -51131-1 0 9991
L22 49086 87.4549 356.5281 0017888 190.9861 213.4994 15.18353147 3645

Live tracking and technical data element details for ONEWEB-0297 (NORAD 49086). ONEWEB-0297 can be tracked NOW for your location showing map with azimuth and elevation plus other details from your city location.

Track the satellite on the map from your city or location and see movement details for azimuth, elevation, latitude, longitude, range, height, and movement on the map or in text.







IsCatalogInMostPopularTable: catalog: 49086, numindb: 4
Update: records affected: 1



GetName: 49086 ONEWEB-0297

Hit Count: updated at: Fri, 24 Sep 2021 18:08:27 GMT